When you browse on this site, cookies collect data to enhance your experience and personalize the content and advertising you see.
Visit our Privacy Policy to learn more. By continuing to use the site, you agree to this use of cookies and data.

Stündliche Wetter Sadry

Heute, 5 Juli, Sonntag

Zeit Temperatur Niederschläge Wind Luftdruck Luftfeuchtigkeit
00:00 +18°C° 0.1 mm 4 m/S 747 mmHg 83%
01:00 +19°C° 0 mm 4 m/S 747 mmHg 75%
02:00 +18°C° 0.1 mm 4 m/S 747 mmHg 78%
03:00 +18°C° 0.1 mm 3 m/S 746 mmHg 82%
04:00 +17°C° 0.1 mm 3 m/S 746 mmHg 86%
05:00 +17°C° 0.4 mm 3 m/S 746 mmHg 89%
06:00 +17°C° 0.4 mm 3 m/S 746 mmHg 92%
07:00 +17°C° 0 mm 3 m/S 746 mmHg 95%
08:00 +19°C° 0 mm 4 m/S 746 mmHg 88%
09:00 +21°C° 0 mm 4 m/S 746 mmHg 82%
10:00 +22°C° 0 mm 5 m/S 746 mmHg 75%
11:00 +23°C° 0.2 mm 5 m/S 746 mmHg 75%
12:00 +23°C° 0.2 mm 6 m/S 746 mmHg 74%
13:00 +26°C° 0 mm 5 m/S 745 mmHg 70%
14:00 +26°C° 0.2 mm 5 m/S 745 mmHg 72%
15:00 +25°C° 0.2 mm 5 m/S 745 mmHg 75%
16:00 +25°C° 0.2 mm 5 m/S 744 mmHg 77%
17:00 +25°C° 0.1 mm 5 m/S 744 mmHg 80%
18:00 +23°C° 0.1 mm 4 m/S 744 mmHg 83%
19:00 +22°C° 0.1 mm 4 m/S 744 mmHg 86%
20:00 +22°C° 0 mm 4 m/S 744 mmHg 86%
21:00 +21°C° 0 mm 4 m/S 744 mmHg 87%
22:00 +21°C° 0 mm 4 m/S 744 mmHg 88%
23:00 +20°C° 0 mm 4 m/S 744 mmHg 88%

Morgen, 6 Juli, Montag

Zeit Temperatur Niederschläge Wind Luftdruck Luftfeuchtigkeit
00:00 +20°C° 0 mm 3 m/S 744 mmHg 89%
01:00 +20°C° 0 mm 3 m/S 744 mmHg 90%
02:00 +19°C° 0 mm 3 m/S 744 mmHg 91%
03:00 +19°C° 0 mm 3 m/S 743 mmHg 92%
04:00 +19°C° 0 mm 3 m/S 743 mmHg 93%
05:00 +18°C° 0.1 mm 3 m/S 743 mmHg 92%
06:00 +18°C° 0.1 mm 3 m/S 743 mmHg 91%
07:00 +18°C° 0.1 mm 4 m/S 743 mmHg 90%
08:00 +19°C° 0 mm 4 m/S 743 mmHg 88%
09:00 +19°C° 0 mm 4 m/S 743 mmHg 86%
10:00 +19°C° 0 mm 4 m/S 743 mmHg 84%
11:00 +20°C° 0.1 mm 5 m/S 743 mmHg 78%
12:00 +21°C° 0.1 mm 5 m/S 743 mmHg 72%
13:00 +22°C° 0.1 mm 6 m/S 743 mmHg 66%
14:00 +21°C° 0.1 mm 5 m/S 743 mmHg 69%
15:00 +20°C° 0.1 mm 5 m/S 743 mmHg 71%
16:00 +20°C° 0.1 mm 4 m/S 743 mmHg 74%
17:00 +19°C° 0.1 mm 4 m/S 743 mmHg 76%
18:00 +18°C° 0.1 mm 3 m/S 744 mmHg 77%
19:00 +17°C° 0.1 mm 3 m/S 744 mmHg 78%
20:00 +16°C° 0 mm 2 m/S 744 mmHg 80%
21:00 +14°C° 0 mm 2 m/S 744 mmHg 83%
22:00 +13°C° 0 mm 2 m/S 745 mmHg 85%
23:00 +13°C° 0 mm 2 m/S 745 mmHg 84%

übermorgen, 7 Juli, Dienstag

Zeit Temperatur Niederschläge Wind Luftdruck Luftfeuchtigkeit
00:00 +12°C° 0 mm 3 m/S 745 mmHg 84%
01:00 +11°C° 0 mm 3 m/S 746 mmHg 83%
02:00 +11°C° 0 mm 3 m/S 746 mmHg 85%
03:00 +11°C° 0 mm 3 m/S 746 mmHg 86%
04:00 +11°C° 0 mm 3 m/S 746 mmHg 87%
05:00 +12°C° 0 mm 4 m/S 746 mmHg 84%
06:00 +13°C° 0 mm 4 m/S 747 mmHg 81%
07:00 +14°C° 0 mm 5 m/S 747 mmHg 77%
08:00 +14°C° 0.1 mm 5 m/S 747 mmHg 72%
09:00 +15°C° 0.1 mm 5 m/S 747 mmHg 67%
10:00 +16°C° 0.1 mm 6 m/S 748 mmHg 63%
11:00 +16°C° 0.1 mm 6 m/S 748 mmHg 62%
12:00 +16°C° 0.1 mm 6 m/S 748 mmHg 62%
13:00 +17°C° 0.1 mm 6 m/S 748 mmHg 62%
14:00 +16°C° 0.1 mm 6 m/S 748 mmHg 63%
15:00 +16°C° 0.1 mm 6 m/S 748 mmHg 64%
16:00 +16°C° 0.1 mm 6 m/S 748 mmHg 65%
17:00 +15°C° 0.1 mm 5 m/S 748 mmHg 70%
18:00 +14°C° 0.1 mm 4 m/S 748 mmHg 74%
19:00 +14°C° 0.1 mm 3 m/S 748 mmHg 79%
20:00 +13°C° 0 mm 3 m/S 749 mmHg 82%
21:00 +11°C° 0 mm 3 m/S 749 mmHg 86%
22:00 +10°C° 0 mm 3 m/S 749 mmHg 90%
23:00 +10°C° 0 mm 3 m/S 749 mmHg 90%

8 Juli, Mittwoch

Zeit Temperatur Niederschläge Wind Luftdruck Luftfeuchtigkeit
00:00 +9°C° 0 mm 3 m/S 749 mmHg 91%
01:00 +9°C° 0 mm 3 m/S 749 mmHg 92%
02:00 +9°C° 0 mm 3 m/S 749 mmHg 92%
03:00 +9°C° 0 mm 3 m/S 748 mmHg 92%
04:00 +9°C° 0 mm 3 m/S 748 mmHg 92%
05:00 +10°C° 0 mm 3 m/S 748 mmHg 86%
06:00 +12°C° 0 mm 4 m/S 748 mmHg 80%
07:00 +14°C° 0 mm 4 m/S 748 mmHg 73%
08:00 +15°C° 0.1 mm 5 m/S 748 mmHg 69%
09:00 +16°C° 0.1 mm 5 m/S 748 mmHg 65%
10:00 +17°C° 0.1 mm 6 m/S 748 mmHg 62%
11:00 +15°C° 0.2 mm 5 m/S 747 mmHg 70%
12:00 +14°C° 0.2 mm 5 m/S 747 mmHg 79%
13:00 +12°C° 0.2 mm 5 m/S 747 mmHg 88%
14:00 +13°C° 0.1 mm 5 m/S 747 mmHg 86%
15:00 +13°C° 0.1 mm 5 m/S 747 mmHg 84%
16:00 +14°C° 0.1 mm 5 m/S 747 mmHg 82%
17:00 +13°C° 0.2 mm 4 m/S 747 mmHg 85%
18:00 +13°C° 0.2 mm 3 m/S 747 mmHg 88%
19:00 +13°C° 0.2 mm 3 m/S 747 mmHg 91%
20:00 +12°C° 0 mm 3 m/S 747 mmHg 93%
21:00 +11°C° 0 mm 3 m/S 748 mmHg 94%
22:00 +10°C° 0 mm 3 m/S 748 mmHg 95%
23:00 +9°C° 0 mm 3 m/S 748 mmHg 94%

9 Juli, Donnerstag

Zeit Temperatur Niederschläge Wind Luftdruck Luftfeuchtigkeit
00:00 +9°C° 0 mm 3 m/S 748 mmHg 94%
01:00 +9°C° 0 mm 3 m/S 748 mmHg 93%
02:00 +8°C° 0 mm 3 m/S 748 mmHg 94%
03:00 +8°C° 0 mm 3 m/S 748 mmHg 94%
04:00 +7°C° 0 mm 4 m/S 749 mmHg 95%
05:00 +10°C° 0 mm 4 m/S 749 mmHg 91%
06:00 +11°C° 0 mm 4 m/S 749 mmHg 88%
07:00 +13°C° 0 mm 5 m/S 750 mmHg 85%
08:00 +15°C° 0.1 mm 5 m/S 750 mmHg 79%
09:00 +16°C° 0.1 mm 5 m/S 750 mmHg 73%
10:00 +17°C° 0.1 mm 5 m/S 751 mmHg 67%
11:00 +19°C° 0.2 mm 5 m/S 751 mmHg 65%
12:00 +19°C° 0.2 mm 4 m/S 751 mmHg 62%
13:00 +20°C° 0.2 mm 4 m/S 751 mmHg 60%
14:00 +20°C° 0.2 mm 4 m/S 751 mmHg 62%
15:00 +19°C° 0.2 mm 4 m/S 751 mmHg 64%
16:00 +19°C° 0.2 mm 3 m/S 750 mmHg 66%
17:00 +18°C° 0.1 mm 2 m/S 751 mmHg 71%
18:00 +17°C° 0.1 mm 2 m/S 751 mmHg 77%
19:00 +16°C° 0.1 mm 1 m/S 751 mmHg 82%
20:00 +15°C° 0 mm 1 m/S 751 mmHg 85%
21:00 +13°C° 0 mm 1 m/S 751 mmHg 87%
22:00 +12°C° 0 mm 1 m/S 751 mmHg 89%
23:00 +12°C° 0 mm 1 m/S 751 mmHg 90%

10 Juli, Freitag

Zeit Temperatur Niederschläge Wind Luftdruck Luftfeuchtigkeit
00:00 +12°C° 0 mm 1 m/S 751 mmHg 91%
01:00 +11°C° 0 mm 1 m/S 751 mmHg 92%
02:00 +10°C° 0 mm 2 m/S 751 mmHg 91%
03:00 +10°C° 0 mm 2 m/S 750 mmHg 91%
04:00 +10°C° 0 mm 2 m/S 750 mmHg 91%
05:00 +12°C° 0 mm 3 m/S 750 mmHg 86%
06:00 +14°C° 0 mm 3 m/S 750 mmHg 82%
07:00 +16°C° 0 mm 3 m/S 750 mmHg 78%
08:00 +18°C° 0 mm 3 m/S 750 mmHg 71%
09:00 +20°C° 0 mm 4 m/S 750 mmHg 64%
10:00 +21°C° 0 mm 4 m/S 750 mmHg 58%
11:00 +22°C° 0 mm 4 m/S 749 mmHg 58%
12:00 +23°C° 0 mm 4 m/S 749 mmHg 58%
13:00 +23°C° 0 mm 4 m/S 749 mmHg 59%
14:00 +23°C° 0.1 mm 4 m/S 748 mmHg 62%
15:00 +25°C° 0.1 mm 4 m/S 748 mmHg 65%
16:00 +25°C° 0.1 mm 4 m/S 747 mmHg 68%
17:00 +24°C° 0.5 mm 3 m/S 747 mmHg 75%
18:00 +21°C° 0.5 mm 3 m/S 746 mmHg 82%
19:00 +20°C° 0.5 mm 3 m/S 746 mmHg 89%
20:00 +19°C° 0.2 mm 3 m/S 746 mmHg 91%
21:00 +19°C° 0.2 mm 3 m/S 746 mmHg 93%
22:00 +18°C° 0.2 mm 3 m/S 745 mmHg 94%
23:00 +18°C° 0.5 mm 3 m/S 745 mmHg 95%
Mehr zeigen